Weather History for Port Angeles, WA

Change the Weather History Date:

Wednesday, January 15, 2014

  Actual Average Record
Temperature  
Mean Temperature 44 °F -  
Max Temperature 50 °F 46 °F 55 °F (1958)
Min Temperature 39 °F 35 °F 17 °F (1950)
Degree Days  
Heating Degree Days 20    
Moisture  
Dew Point 39 °F    
Average Humidity 88    
Maximum Humidity 100    
Minimum Humidity 66    
Precipitation  
Precipitation 0.00 in - - ()
Sea Level Pressure  
Sea Level Pressure 30.57 in    
Wind  
Wind Speed 6 mph (SSE)    
Max Wind Speed 15 mph    
Max Gust Speed -    
Visibility 5 miles    
Events Fog    
Averages and records for this station are not official NWS values.
T = Trace of Precipitation, MM = Missing Value Source: NWS Daily Summary

Daily Weather History Graph

Daily Weather History Graph

Search for Another Location

Airport:

Trip Planner

Search our weather history database for the weather conditions in past years. The results will help you decide how hot, cold, wet, or windy it might be!

Date:

Astronomy

Jan. 15, 2014 Rise Set
Actual Time 7:59 AM PST 4:48 PM PST
Civil Twilight 7:24 AM PST 5:23 PM PST
Nautical Twilight 6:45 AM PST 6:02 PM PST
Astronomical Twilight 6:08 AM PST 6:39 PM PST
Moon 4:56 PM PST (1/15) 7:14 AM PST (1/15)
Length of Visible Light 9h 59m
Length of Day
8h 48m
Full, 100% of the Moon is Illuminated
Jan 15
Full
Jan 15
Full
Jan 23
Last Quarter
Jan 30
New
Feb 6
First Quarter

Hourly Weather History & Observations

Time (PST) Temp. Windchill Dew Point Humidity Pressure Visibility Wind Dir Wind Speed Gust Speed Precip Events Conditions
12:53 AM 45.0 °F 40.6 °F 37.9 °F 76% 30.59 in 10.0 mi WSW 8.1 mph - N/A   Overcast
1:53 AM 45.0 °F 39.3 °F 37.9 °F 76% 30.60 in 10.0 mi West 11.5 mph - N/A   Overcast
2:53 AM 45.0 °F 39.7 °F 37.9 °F 76% 30.62 in 10.0 mi WSW 10.4 mph - N/A   Overcast
3:53 AM 45.0 °F 41.2 °F 37.9 °F 76% 30.59 in 10.0 mi SW 6.9 mph - N/A   Overcast
4:53 AM 44.1 °F 38.6 °F 36.0 °F 73% 30.58 in 10.0 mi WSW 10.4 mph - N/A   Mostly Cloudy
5:53 AM 45.0 °F 38.2 °F 36.0 °F 71% 30.54 in 10.0 mi West 15.0 mph - N/A   Clear
6:53 AM 45.0 °F 38.9 °F 36.0 °F 71% 30.56 in 10.0 mi West 12.7 mph - N/A   Clear
7:53 AM 43.0 °F 41.3 °F 36.0 °F 76% 30.58 in 10.0 mi NE 3.5 mph - N/A   Clear
8:53 AM 39.9 °F 35.8 °F 36.0 °F 86% 30.61 in 10.0 mi WSW 5.8 mph - N/A   Clear
9:53 AM 44.1 °F 40.1 °F 37.0 °F 76% 30.61 in 10.0 mi SSW 6.9 mph - N/A   Scattered Clouds
10:53 AM 48.0 °F - 37.0 °F 66% 30.59 in 10.0 mi West 9.2 mph - N/A   Clear
11:27 AM 45.0 °F 40.6 °F 41.0 °F 86% 30.58 in 2.5 mi North 8.1 mph - N/A   Scattered Clouds
11:32 AM 44.1 °F 40.8 °F 42.1 °F 93% 30.59 in 1.2 mi Variable 5.8 mph - N/A   Mostly Cloudy
11:35 AM 44.1 °F 40.8 °F 42.1 °F 93% 30.59 in 0.8 mi NNE 5.8 mph - N/A   Mist
11:39 AM 44.1 °F 41.5 °F 42.1 °F 93% 30.59 in 0.2 mi NE 4.6 mph - N/A Fog Fog
11:53 AM 43.0 °F - 42.1 °F 97% 30.61 in 0.2 mi Calm Calm - N/A Fog Fog
12:07 PM 44.1 °F - 42.1 °F 93% 30.60 in 1.0 mi Calm Calm - N/A   Mist
12:11 PM 44.1 °F 42.5 °F 42.1 °F 93% 30.60 in 4.0 mi SSW 3.5 mph - N/A   Mostly Cloudy
12:24 PM 46.0 °F 44.8 °F 42.1 °F 86% 30.59 in 10.0 mi South 3.5 mph - N/A   Scattered Clouds
12:53 PM 48.9 °F - 39.9 °F 71% 30.58 in 10.0 mi Variable 3.5 mph - N/A   Clear
1:53 PM 50.0 °F - 41.0 °F 71% 30.55 in 10.0 mi Variable 3.5 mph - N/A   Clear
2:53 PM 46.0 °F 44.8 °F 43.0 °F 89% 30.56 in 10.0 mi NE 3.5 mph - N/A   Clear
3:53 PM 45.0 °F 41.8 °F 41.0 °F 86% 30.57 in 10.0 mi ESE 5.8 mph - N/A   Clear
4:53 PM 43.0 °F 39.5 °F 39.9 °F 89% 30.56 in 8.0 mi SE 5.8 mph - N/A   Clear
5:42 PM 39.9 °F - 39.0 °F 97% 30.55 in 1.0 mi Calm Calm - N/A   Mist
5:48 PM 39.2 °F - 39.2 °F 100% 30.55 in 0.2 mi Calm Calm - N/A Fog Fog
5:49 PM 39.0 °F - 39.0 °F 100% 30.56 in 0.2 mi Calm Calm - N/A Fog Fog
5:58 PM 39.9 °F 36.7 °F 39.0 °F 97% 30.54 in 1.0 mi SSE 4.6 mph - N/A   Mist
6:00 PM 39.9 °F 36.7 °F 37.9 °F 93% 30.54 in 2.5 mi SSE 4.6 mph - N/A   Partly Cloudy
6:07 PM 41.0 °F 39.0 °F 39.0 °F 93% 30.54 in 5.0 mi SSE 3.5 mph - N/A   Partly Cloudy
6:18 PM 39.0 °F - 37.0 °F 93% 30.54 in 1.8 mi Calm Calm - N/A   Clear
6:42 PM 39.0 °F - 37.9 °F 96% 30.55 in 1.0 mi Calm Calm - N/A   Mist
6:50 PM 39.2 °F - 37.4 °F 93% 30.55 in 0.5 mi Calm Calm - N/A Fog Fog
6:51 PM 39.2 °F - 37.4 °F 93% 30.55 in 0.2 mi Calm Calm - N/A Fog Fog
6:53 PM 39.9 °F - 37.9 °F 93% 30.56 in 0.2 mi Calm Calm - N/A Fog Fog
7:23 PM 39.9 °F - 39.0 °F 97% 30.54 in 0.2 mi Calm Calm - N/A Fog Fog
7:53 PM 39.9 °F 36.7 °F 39.0 °F 97% 30.55 in 0.2 mi ESE 4.6 mph - N/A Fog Fog
8:32 PM 43.0 °F 39.5 °F 41.0 °F 93% 30.54 in 0.2 mi ESE 5.8 mph - N/A Fog Fog
8:53 PM 42.1 °F 37.1 °F 41.0 °F 96% 30.55 in 0.2 mi SE 8.1 mph - N/A Fog Fog
9:12 PM 42.1 °F 37.7 °F 41.0 °F 96% 30.54 in 0.5 mi ESE 6.9 mph - N/A Fog Fog
9:33 PM 42.1 °F 38.4 °F 41.0 °F 96% 30.54 in 1.8 mi ESE 5.8 mph - N/A   Overcast
9:41 PM 42.1 °F 38.4 °F 41.0 °F 96% 30.55 in 3.0 mi SE 5.8 mph - N/A   Overcast
9:53 PM 42.1 °F 38.4 °F 41.0 °F 96% 30.55 in 5.0 mi SSE 5.8 mph - N/A   Overcast
10:53 PM 42.1 °F 37.7 °F 41.0 °F 96% 30.55 in 10.0 mi SSE 6.9 mph - N/A   Overcast
11:50 PM 42.8 °F 38.6 °F 39.2 °F 87% 30.53 in 1.8 mi SSE 6.9 mph - N/A   Overcast
11:53 PM 42.1 °F 38.4 °F 39.9 °F 92% 30.54 in 1.2 mi SSE 5.8 mph - N/A   Overcast